Location: Basse Occidentale du Courleau
(48.3833°N, 4.8333°W)
Time: 03:47:06
(UTC+00:00)

Cosmos 2237 Rocket - Pass Details

Date: 05 July 2020
Orbit: 835 x 850 km, 71.0° (Epoch: 11 August)

Event Time Altitude Azimuth Distance (km) Brightness Sun altitude
Exits shadow 22:14:33 19° 155° (SSE) 1,931 3.4 -13.3°
Maximum altitude 22:17:46 32° 105° (ESE) 1,416 3.0 -13.5°
Drops below altitude 10° 22:22:46 10° 44° (NE) 2,486 4.9 -13.9°
Sets 22:25:26 0° 35° (NE) 3,426 5.7 -14.1°
